Wetterdaten: Freitag, 14.11.2014
Datum Zeit Temp. A. Feuchte A. Luftdruck Regen Wind Richtung Richtung Sonnenschein ET UV Solar Taupunkt Windchill Windben Empfang
14.11.2014 00:00 6,2 C 85 % 1013,1 hPa 0,0 l/m 0,0 km/h (0 Bft) S 174 0 min 0,000 mm 0,0 UV-I 0 W/m 3,9 C 6,2 C 0,0 km/h (0 Bft) 0,00 %
14.11.2014 00:15 6,5 C 85 % 1013,2 hPa 0,0 l/m 0,4 km/h (0 Bft) S-SO 168 0 min 0,000 mm 0,0 UV-I 0 W/m 4,2 C 6,5 C 4,0 km/h (1 Bft) 0,00 %
14.11.2014 00:30 7,1 C 85 % 1013,0 hPa 0,0 l/m 1,8 km/h (1 Bft) O 100 0 min 0,000 mm 0,0 UV-I 0 W/m 4,8 C 7,1 C 4,0 km/h (1 Bft) 0,00 %
14.11.2014 00:45 7,1 C 85 % 1013,0 hPa 0,0 l/m 1,8 km/h (1 Bft) O 82 0 min 0,000 mm 0,0 UV-I 0 W/m 4,8 C 7,1 C 4,0 km/h (1 Bft) 0,00 %
14.11.2014 01:00 7,3 C 85 % 1012,9 hPa 0,0 l/m 2,9 km/h (1 Bft) O-SO 106 0 min 0,000 mm 0,0 UV-I 0 W/m 4,9 C 7,3 C 4,0 km/h (1 Bft) 0,00 %
14.11.2014 01:15 7,5 C 85 % 1012,6 hPa 0,0 l/m 4,3 km/h (1 Bft) O-SO 118 0 min 0,000 mm 0,0 UV-I 0 W/m 5,1 C 7,5 C 7,9 km/h (2 Bft) 0,00 %
14.11.2014 01:30 7,6 C 85 % 1012,5 hPa 0,0 l/m 7,9 km/h (2 Bft) O 96 0 min 0,000 mm 0,0 UV-I 0 W/m 5,2 C 6,4 C 7,9 km/h (2 Bft) 0,00 %
14.11.2014 01:45 7,7 C 84 % 1012,4 hPa 0,0 l/m 6,5 km/h (2 Bft) O 93 0 min 0,000 mm 0,0 UV-I 0 W/m 5,2 C 7,6 C 11,9 km/h (2 Bft) 0,00 %
14.11.2014 02:00 7,7 C 84 % 1012,4 hPa 0,0 l/m 6,5 km/h (2 Bft) O 81 0 min 0,000 mm 0,0 UV-I 0 W/m 5,2 C 7,6 C 7,9 km/h (2 Bft) 0,00 %
14.11.2014 02:15 7,7 C 84 % 1012,3 hPa 0,0 l/m 0,0 km/h (0 Bft) N-NW 341 0 min 0,000 mm 0,0 UV-I 0 W/m 5,2 C 7,7 C 0,0 km/h (0 Bft) 0,00 %
14.11.2014 02:30 7,7 C 84 % 1012,2 hPa 0,0 l/m 0,0 km/h (0 Bft) N 353 0 min 0,000 mm 0,0 UV-I 0 W/m 5,2 C 7,7 C 0,0 km/h (0 Bft) 0,00 %
14.11.2014 02:45 7,7 C 84 % 1012,2 hPa 0,0 l/m 0,7 km/h (0 Bft) O 99 0 min 0,000 mm 0,0 UV-I 0 W/m 5,2 C 7,7 C 4,0 km/h (1 Bft) 0,00 %
14.11.2014 03:00 7,8 C 84 % 1011,9 hPa 0,0 l/m 7,2 km/h (2 Bft) S 171 0 min 0,000 mm 0,0 UV-I 0 W/m 5,3 C 7,2 C 11,9 km/h (2 Bft) 0,00 %
14.11.2014 03:15 7,8 C 83 % 1011,9 hPa 0,0 l/m 0,7 km/h (0 Bft) S 175 0 min 0,000 mm 0,0 UV-I 0 W/m 5,1 C 7,8 C 4,0 km/h (1 Bft) 0,00 %
14.11.2014 03:30 7,9 C 83 % 1012,1 hPa 0,0 l/m 6,5 km/h (2 Bft) O-SO 115 0 min 0,000 mm 0,0 UV-I 0 W/m 5,2 C 7,8 C 7,9 km/h (2 Bft) 0,00 %
14.11.2014 03:45 8,0 C 83 % 1011,6 hPa 0,0 l/m 1,8 km/h (1 Bft) O 100 0 min 0,000 mm 0,0 UV-I 0 W/m 5,3 C 8,0 C 4,0 km/h (1 Bft) 0,00 %
14.11.2014 04:00 8,0 C 83 % 1011,4 hPa 0,0 l/m 19,8 km/h (3 Bft) O 98 0 min 0,000 mm 0,0 UV-I 0 W/m 5,3 C 0,8 C 28,1 km/h (4 Bft) 0,00 %
14.11.2014 04:15 7,9 C 83 % 1011,7 hPa 0,0 l/m 5,4 km/h (1 Bft) O 101 0 min 0,000 mm 0,0 UV-I 0 W/m 5,2 C 7,9 C 7,9 km/h (2 Bft) 0,00 %
14.11.2014 04:30 7,7 C 83 % 1011,5 hPa 0,0 l/m 4,3 km/h (1 Bft) S-SO 167 0 min 0,000 mm 0,0 UV-I 0 W/m 5,0 C 7,7 C 7,9 km/h (2 Bft) 0,00 %
14.11.2014 04:45 7,6 C 83 % 1011,7 hPa 0,0 l/m 5,8 km/h (2 Bft) S 179 0 min 0,000 mm 0,0 UV-I 0 W/m 4,9 C 7,6 C 7,9 km/h (2 Bft) 0,00 %
14.11.2014 05:00 7,5 C 83 % 1011,7 hPa 0,0 l/m 7,2 km/h (2 Bft) O-SO 112 0 min 0,000 mm 0,0 UV-I 0 W/m 4,8 C 6,9 C 11,9 km/h (2 Bft) 0,00 %
14.11.2014 05:15 7,5 C 83 % 1011,7 hPa 0,0 l/m 4,7 km/h (1 Bft) O 81 0 min 0,000 mm 0,0 UV-I 0 W/m 4,8 C 7,5 C 7,9 km/h (2 Bft) 0,00 %
14.11.2014 05:30 7,4 C 82 % 1011,6 hPa 0,0 l/m 15,5 km/h (3 Bft) O 92 0 min 0,000 mm 0,0 UV-I 0 W/m 4,5 C 1,8 C 24,1 km/h (4 Bft) 0,00 %
14.11.2014 05:45 7,2 C 82 % 1011,7 hPa 0,0 l/m 9,0 km/h (2 Bft) SO 130 0 min 0,000 mm 0,0 UV-I 0 W/m 4,3 C 5,2 C 11,9 km/h (2 Bft) 0,00 %
14.11.2014 06:00 7,1 C 83 % 1011,8 hPa 0,0 l/m 3,2 km/h (1 Bft) O 96 0 min 0,000 mm 0,0 UV-I 0 W/m 4,4 C 7,1 C 4,0 km/h (1 Bft) 0,00 %
14.11.2014 06:15 7,0 C 83 % 1011,8 hPa 0,0 l/m 0,4 km/h (0 Bft) N 352 0 min 0,000 mm 0,0 UV-I 0 W/m 4,3 C 7,0 C 4,0 km/h (1 Bft) 0,00 %
14.11.2014 06:30 7,0 C 83 % 1011,5 hPa 0,0 l/m 0,4 km/h (0 Bft) S 175 0 min 0,000 mm 0,0 UV-I 0 W/m 4,3 C 7,0 C 4,0 km/h (1 Bft) 0,00 %
14.11.2014 06:45 7,0 C 83 % 1011,7 hPa 0,0 l/m 0,0 km/h (0 Bft) S 172 0 min 0,000 mm 0,0 UV-I 0 W/m 4,3 C 7,0 C 0,0 km/h (0 Bft) 0,00 %
14.11.2014 07:00 7,1 C 84 % 1011,4 hPa 0,0 l/m 0,4 km/h (0 Bft) SO 135 0 min 0,000 mm 0,0 UV-I 0 W/m 4,6 C 7,1 C 4,0 km/h (1 Bft) 0,00 %
14.11.2014 07:15 7,2 C 84 % 1011,5 hPa 0,0 l/m 0,4 km/h (0 Bft) SO 130 0 min 0,000 mm 0,0 UV-I 0 W/m 4,7 C 7,2 C 4,0 km/h (1 Bft) 0,00 %
14.11.2014 07:30 7,2 C 84 % 1011,7 hPa 0,0 l/m 0,0 km/h (0 Bft) S 173 0 min 0,000 mm 0,0 UV-I 0 W/m 4,7 C 7,2 C 0,0 km/h (0 Bft) 0,00 %
14.11.2014 07:45 7,2 C 84 % 1011,8 hPa 0,0 l/m 0,0 km/h (0 Bft) S-SW 211 0 min 0,000 mm 0,0 UV-I 0 W/m 4,7 C 7,2 C 0,0 km/h (0 Bft) 0,00 %
14.11.2014 08:00 7,2 C 84 % 1011,7 hPa 0,0 l/m 0,0 km/h (0 Bft) S 174 0 min 0,000 mm 0,0 UV-I 0 W/m 4,7 C 7,2 C 0,0 km/h (0 Bft) 0,00 %
14.11.2014 08:15 7,2 C 84 % 1011,6 hPa 0,0 l/m 0,4 km/h (0 Bft) O-SO 108 0 min 0,000 mm 0,0 UV-I 35 W/m 4,7 C 7,2 C 4,0 km/h (1 Bft) 0,00 %
14.11.2014 08:30 7,3 C 83 % 1011,4 hPa 0,0 l/m 0,4 km/h (0 Bft) O-SO 103 0 min 0,000 mm 0,0 UV-I 73 W/m 4,6 C 7,3 C 4,0 km/h (1 Bft) 0,00 %
14.11.2014 08:45 7,2 C 83 % 1011,4 hPa 0,0 l/m 0,0 km/h (0 Bft) S 178 0 min 0,000 mm 0,0 UV-I 77 W/m 4,5 C 7,2 C 0,0 km/h (0 Bft) 0,00 %
14.11.2014 09:00 7,2 C 83 % 1011,1 hPa 0,0 l/m 0,7 km/h (0 Bft) O 81 0 min 0,000 mm 1,0 UV-I 120 W/m 4,5 C 7,2 C 4,0 km/h (1 Bft) 0,00 %
14.11.2014 09:15 7,2 C 83 % 1011,0 hPa 0,0 l/m 1,8 km/h (1 Bft) O-NO 60 0 min 0,000 mm 1,0 UV-I 137 W/m 4,5 C 7,2 C 4,0 km/h (1 Bft) 0,00 %
14.11.2014 09:30 7,4 C 83 % 1010,8 hPa 0,0 l/m 0,7 km/h (0 Bft) S-SO 165 15 min 0,000 mm 1,0 UV-I 179 W/m 4,7 C 7,4 C 4,0 km/h (1 Bft) 0,00 %
14.11.2014 09:45 7,7 C 83 % 1010,7 hPa 0,0 l/m 0,4 km/h (0 Bft) SO 132 15 min 0,000 mm 1,0 UV-I 218 W/m 5,0 C 7,7 C 4,0 km/h (1 Bft) 0,00 %
14.11.2014 10:00 8,0 C 83 % 1010,8 hPa 0,0 l/m 0,7 km/h (0 Bft) SO 131 15 min 0,000 mm 1,0 UV-I 188 W/m 5,3 C 8,0 C 4,0 km/h (1 Bft) 0,00 %
14.11.2014 10:15 8,1 C 82 % 1010,7 hPa 0,0 l/m 0,0 km/h (0 Bft) S 186 15 min 0,000 mm 1,0 UV-I 277 W/m 5,2 C 8,1 C 0,0 km/h (0 Bft) 0,00 %
14.11.2014 10:30 8,2 C 82 % 1010,5 hPa 0,0 l/m 9,0 km/h (2 Bft) O 90 15 min 0,000 mm 1,0 UV-I 348 W/m 5,3 C 6,3 C 11,9 km/h (2 Bft) 0,00 %
14.11.2014 10:45 8,4 C 81 % 1010,3 hPa 0,0 l/m 0,4 km/h (0 Bft) O-SO 108 15 min 0,000 mm 1,0 UV-I 387 W/m 5,3 C 8,4 C 4,0 km/h (1 Bft) 0,00 %
14.11.2014 11:00 8,7 C 80 % 1010,0 hPa 0,0 l/m 0,7 km/h (0 Bft) SO 130 15 min 0,000 mm 1,0 UV-I 395 W/m 5,4 C 8,7 C 4,0 km/h (1 Bft) 0,00 %
14.11.2014 11:15 8,9 C 79 % 1009,7 hPa 0,0 l/m 2,2 km/h (1 Bft) S-SO 159 15 min 0,000 mm 1,0 UV-I 490 W/m 5,5 C 8,9 C 7,9 km/h (2 Bft) 0,00 %
14.11.2014 11:30 9,5 C 76 % 1009,3 hPa 0,0 l/m 7,2 km/h (2 Bft) O 88 15 min 0,000 mm 2,0 UV-I 667 W/m 5,5 C 8,9 C 11,9 km/h (2 Bft) 0,00 %
14.11.2014 11:45 9,5 C 76 % 1009,1 hPa 0,0 l/m 5,4 km/h (1 Bft) SO 138 15 min 0,000 mm 2,0 UV-I 662 W/m 5,5 C 9,5 C 11,9 km/h (2 Bft) 0,00 %
14.11.2014 12:00 9,7 C 76 % 1008,8 hPa 0,0 l/m 7,9 km/h (2 Bft) S-SO 148 15 min 0,000 mm 2,0 UV-I 624 W/m 5,7 C 8,6 C 7,9 km/h (2 Bft) 0,00 %
14.11.2014 12:15 9,6 C 76 % 1008,9 hPa 0,0 l/m 6,5 km/h (2 Bft) O 100 15 min 0,000 mm 2,0 UV-I 563 W/m 5,6 C 9,6 C 7,9 km/h (2 Bft) 0,00 %
14.11.2014 12:30 10,0 C 76 % 1008,8 hPa 0,0 l/m 4,7 km/h (1 Bft) O-SO 106 15 min 0,000 mm 2,0 UV-I 600 W/m 6,0 C 10,0 C 7,9 km/h (2 Bft) 0,00 %
14.11.2014 12:45 10,4 C 74 % 1008,6 hPa 0,0 l/m 2,2 km/h (1 Bft) O-SO 111 15 min 0,000 mm 2,0 UV-I 627 W/m 6,0 C 10,4 C 4,0 km/h (1 Bft) 0,00 %
14.11.2014 13:00 10,7 C 73 % 1008,6 hPa 0,0 l/m 6,8 km/h (2 Bft) O 95 15 min 0,000 mm 2,0 UV-I 542 W/m 6,1 C 10,4 C 11,9 km/h (2 Bft) 0,00 %
14.11.2014 13:15 10,8 C 73 % 1008,3 hPa 0,0 l/m 4,3 km/h (1 Bft) O 82 15 min 0,000 mm 1,0 UV-I 518 W/m 6,2 C 10,8 C 7,9 km/h (2 Bft) 0,00 %
14.11.2014 13:30 10,9 C 73 % 1008,0 hPa 0,0 l/m 11,9 km/h (2 Bft) NO 48 15 min 0,000 mm 1,0 UV-I 479 W/m 6,3 C 7,6 C 19,8 km/h (3 Bft) 0,00 %
14.11.2014 13:45 11,0 C 72 % 1008,3 hPa 0,0 l/m 3,2 km/h (1 Bft) S 172 15 min 0,000 mm 1,0 UV-I 444 W/m 6,2 C 11,0 C 7,9 km/h (2 Bft) 0,00 %
14.11.2014 14:00 11,0 C 73 % 1008,1 hPa 0,0 l/m 4,0 km/h (1 Bft) O 85 15 min 0,000 mm 1,0 UV-I 408 W/m 6,4 C 11,0 C 7,9 km/h (2 Bft) 0,00 %
14.11.2014 14:15 10,7 C 73 % 1008,2 hPa 0,0 l/m 0,7 km/h (0 Bft) SO 128 15 min 0,000 mm 1,0 UV-I 365 W/m 6,1 C 10,7 C 4,0 km/h (1 Bft) 0,00 %
14.11.2014 14:30 10,6 C 75 % 1008,0 hPa 0,0 l/m 4,3 km/h (1 Bft) SO 125 15 min 0,000 mm 1,0 UV-I 319 W/m 6,4 C 10,6 C 7,9 km/h (2 Bft) 0,00 %
14.11.2014 14:45 10,5 C 75 % 1008,1 hPa 0,0 l/m 0,0 km/h (0 Bft) S-SO 153 15 min 0,000 mm 1,0 UV-I 253 W/m 6,3 C 10,5 C 0,0 km/h (0 Bft) 0,00 %
14.11.2014 15:00 10,4 C 77 % 1008,0 hPa 0,0 l/m 0,0 km/h (0 Bft) S 191 15 min 0,000 mm 1,0 UV-I 199 W/m 6,5 C 10,4 C 0,0 km/h (0 Bft) 0,00 %
14.11.2014 15:15 10,1 C 77 % 1008,1 hPa 0,0 l/m 0,0 km/h (0 Bft) SW 236 15 min 0,000 mm 1,0 UV-I 138 W/m 6,3 C 10,1 C 0,0 km/h (0 Bft) 0,00 %
14.11.2014 15:30 9,8 C 79 % 1008,1 hPa 0,0 l/m 0,0 km/h (0 Bft) SW 236 15 min 0,000 mm 0,0 UV-I 77 W/m 6,3 C 9,8 C 0,0 km/h (0 Bft) 0,00 %
14.11.2014 15:45 9,3 C 81 % 1008,1 hPa 0,0 l/m 0,0 km/h (0 Bft) S-SW 209 0 min 0,000 mm 0,0 UV-I 24 W/m 6,2 C 9,3 C 0,0 km/h (0 Bft) 0,00 %
14.11.2014 16:00 8,8 C 81 % 1007,9 hPa 0,0 l/m 0,0 km/h (0 Bft) S-SW 209 0 min 0,000 mm 0,0 UV-I 0 W/m 5,7 C 8,8 C 0,0 km/h (0 Bft) 0,00 %
14.11.2014 16:15 8,3 C 83 % 1007,5 hPa 0,0 l/m 0,0 km/h (0 Bft) S-SW 209 0 min 0,000 mm 0,0 UV-I 0 W/m 5,6 C 8,3 C 0,0 km/h (0 Bft) 0,00 %
14.11.2014 16:30 8,0 C 83 % 1007,7 hPa 0,0 l/m 0,0 km/h (0 Bft) SW 216 0 min 0,000 mm 0,0 UV-I 0 W/m 5,3 C 8,0 C 0,0 km/h (0 Bft) 0,00 %
14.11.2014 16:45 7,5 C 83 % 1007,6 hPa 0,0 l/m 0,0 km/h (0 Bft) S 184 0 min 0,000 mm 0,0 UV-I 0 W/m 4,8 C 7,5 C 0,0 km/h (0 Bft) 0,00 %
14.11.2014 17:00 7,3 C 84 % 1007,6 hPa 0,0 l/m 0,0 km/h (0 Bft) SW 217 0 min 0,000 mm 0,0 UV-I 0 W/m 4,8 C 7,3 C 0,0 km/h (0 Bft) 0,00 %
14.11.2014 17:15 7,1 C 84 % 1007,5 hPa 0,0 l/m 0,0 km/h (0 Bft) SW 217 0 min 0,000 mm 0,0 UV-I 0 W/m 4,6 C 7,1 C 0,0 km/h (0 Bft) 0,00 %
14.11.2014 17:30 6,8 C 84 % 1007,5 hPa 0,0 l/m 0,0 km/h (0 Bft) SW 217 0 min 0,000 mm 0,0 UV-I 0 W/m 4,3 C 6,8 C 0,0 km/h (0 Bft) 0,00 %
14.11.2014 17:45 6,6 C 84 % 1007,7 hPa 0,0 l/m 0,0 km/h (0 Bft) SW 224 0 min 0,000 mm 0,0 UV-I 0 W/m 4,1 C 6,6 C 0,0 km/h (0 Bft) 0,00 %
14.11.2014 18:00 6,8 C 84 % 1007,4 hPa 0,0 l/m 0,0 km/h (0 Bft) W-SW 251 0 min 0,000 mm 0,0 UV-I 0 W/m 4,3 C 6,8 C 0,0 km/h (0 Bft) 0,00 %
14.11.2014 18:15 6,9 C 85 % 1007,8 hPa 0,0 l/m 0,4 km/h (0 Bft) W-SW 251 0 min 0,000 mm 0,0 UV-I 0 W/m 4,6 C 6,9 C 4,0 km/h (1 Bft) 0,00 %
14.11.2014 18:30 7,2 C 85 % 1007,7 hPa 0,0 l/m 0,0 km/h (0 Bft) S-SW 205 0 min 0,000 mm 0,0 UV-I 0 W/m 4,9 C 7,2 C 0,0 km/h (0 Bft) 0,00 %
14.11.2014 18:45 7,4 C 85 % 1007,7 hPa 0,0 l/m 0,0 km/h (0 Bft) W-SW 256 0 min 0,000 mm 0,0 UV-I 0 W/m 5,0 C 7,4 C 0,0 km/h (0 Bft) 0,00 %
14.11.2014 19:00 7,4 C 85 % 1007,6 hPa 0,0 l/m 0,0 km/h (0 Bft) S-SW 212 0 min 0,000 mm 0,0 UV-I 0 W/m 5,0 C 7,4 C 0,0 km/h (0 Bft) 0,00 %
14.11.2014 19:15 7,2 C 85 % 1007,7 hPa 0,0 l/m 0,0 km/h (0 Bft) W-NW 289 0 min 0,000 mm 0,0 UV-I 0 W/m 4,9 C 7,2 C 0,0 km/h (0 Bft) 0,00 %
14.11.2014 19:30 7,1 C 85 % 1007,8 hPa 0,0 l/m 0,0 km/h (0 Bft) S-SW 206 0 min 0,000 mm 0,0 UV-I 0 W/m 4,8 C 7,1 C 0,0 km/h (0 Bft) 0,00 %
14.11.2014 19:45 7,1 C 85 % 1007,5 hPa 0,0 l/m 0,0 km/h (0 Bft) W-SW 256 0 min 0,000 mm 0,0 UV-I 0 W/m 4,8 C 7,1 C 0,0 km/h (0 Bft) 0,00 %
14.11.2014 20:00 7,1 C 85 % 1007,7 hPa 0,0 l/m 0,0 km/h (0 Bft) SW 226 0 min 0,000 mm 0,0 UV-I 0 W/m 4,8 C 7,1 C 0,0 km/h (0 Bft) 0,00 %
14.11.2014 20:15 7,1 C 85 % 1007,8 hPa 0,0 l/m 0,4 km/h (0 Bft) W-SW 252 0 min 0,000 mm 0,0 UV-I 0 W/m 4,8 C 7,1 C 4,0 km/h (1 Bft) 0,00 %
14.11.2014 20:30 7,2 C 85 % 1007,9 hPa 0,0 l/m 0,0 km/h (0 Bft) W-SW 252 0 min 0,000 mm 0,0 UV-I 0 W/m 4,9 C 7,2 C 0,0 km/h (0 Bft) 0,00 %
14.11.2014 20:45 7,2 C 85 % 1007,8 hPa 0,0 l/m 0,0 km/h (0 Bft) S-SW 198 0 min 0,000 mm 0,0 UV-I 0 W/m 4,9 C 7,2 C 0,0 km/h (0 Bft) 0,00 %
14.11.2014 21:00 7,3 C 85 % 1007,6 hPa 0,0 l/m 0,0 km/h (0 Bft) S-SW 199 0 min 0,000 mm 0,0 UV-I 0 W/m 4,9 C 7,3 C 0,0 km/h (0 Bft) 0,00 %
14.11.2014 21:15 7,1 C 85 % 1007,6 hPa 0,0 l/m 0,0 km/h (0 Bft) S 174 0 min 0,000 mm 0,0 UV-I 0 W/m 4,8 C 7,1 C 0,0 km/h (0 Bft) 0,00 %
14.11.2014 21:30 7,0 C 85 % 1007,4 hPa 0,0 l/m 0,0 km/h (0 Bft) W-SW 253 0 min 0,000 mm 0,0 UV-I 0 W/m 4,7 C 7,0 C 0,0 km/h (0 Bft) 0,00 %
14.11.2014 21:45 6,9 C 85 % 1007,5 hPa 0,0 l/m 0,0 km/h (0 Bft) S-SW 210 0 min 0,000 mm 0,0 UV-I 0 W/m 4,6 C 6,9 C 0,0 km/h (0 Bft) 0,00 %
14.11.2014 22:00 6,7 C 85 % 1007,5 hPa 0,0 l/m 0,0 km/h (0 Bft) S 185 0 min 0,000 mm 0,0 UV-I 0 W/m 4,4 C 6,7 C 0,0 km/h (0 Bft) 0,00 %
14.11.2014 22:15 6,4 C 85 % 1007,5 hPa 0,0 l/m 0,0 km/h (0 Bft) W-SW 238 0 min 0,000 mm 0,0 UV-I 0 W/m 4,1 C 6,4 C 0,0 km/h (0 Bft) 0,00 %
14.11.2014 22:30 6,1 C 85 % 1007,2 hPa 0,0 l/m 0,0 km/h (0 Bft) W-SW 256 0 min 0,000 mm 0,0 UV-I 0 W/m 3,8 C 6,1 C 0,0 km/h (0 Bft) 0,00 %
14.11.2014 22:45 5,9 C 85 % 1007,2 hPa 0,0 l/m 0,0 km/h (0 Bft) S-SW 196 0 min 0,000 mm 0,0 UV-I 0 W/m 3,6 C 5,9 C 0,0 km/h (0 Bft) 0,00 %
14.11.2014 23:00 5,7 C 85 % 1007,0 hPa 0,0 l/m 0,0 km/h (0 Bft) SW 225 0 min 0,000 mm 0,0 UV-I 0 W/m 3,4 C 5,7 C 0,0 km/h (0 Bft) 0,00 %
14.11.2014 23:15 5,7 C 85 % 1006,4 hPa 0,0 l/m 0,0 km/h (0 Bft) SW 236 0 min 0,000 mm 0,0 UV-I 0 W/m 3,4 C 5,7 C 0,0 km/h (0 Bft) 0,00 %
14.11.2014 23:30 5,8 C 85 % 1006,2 hPa 0,0 l/m 0,0 km/h (0 Bft) W-SW 239 0 min 0,000 mm 0,0 UV-I 0 W/m 3,5 C 5,8 C 0,0 km/h (0 Bft) 0,00 %
14.11.2014 23:45 5,8 C 85 % 1006,7 hPa 0,0 l/m 0,0 km/h (0 Bft) W-SW 238 0 min 0,000 mm 0,0 UV-I 0 W/m 3,5 C 5,8 C 0,0 km/h (0 Bft) 0,00 %
_ Min-Zeit 23:00 13:45 23:30 - 00:00 - - - - - - 23:00 04:00 00:00 00:00
Minimum _ 5,7 C 72 % 1006,2 hPa - 0,0 km/h (0 Bft) - - - - - - 3,4 C 0,8 C 0,0 km/h (0 Bft) 0,00 %
_ Max-Zeit 13:45 00:00 00:15 00:00 04:00 - - 09:30 00:00 11:30 11:30 15:00 13:45 04:00 00:00
Maximum _ 11,0 C 85 % 1013,2 hPa 0,0 l/m 19,8 km/h
O (3 Bft)
- - 15 min 0,000 mm 2,0 UV-I 667 W/m 6,5 C 11,0 C 28,1 km/h
O (4 Bft)
0,00 %
Durchschnitt _ 7,9 C 82 % 1009,6 hPa #0,0 l/m 2,2 km/h (1 Bft) O - #6:15 h #0,000 mm 1,3 UV-I 337 W/m 5,0 C 7,6 C 4,1 km/h (1 Bft) 0,00 %